Location: *
(13.3000°N, 4.9000°W)
Time: 13:57:51
(UTC+00:00)

Daily predictions for brighter satellites

Satellite Brightness Start Highest point End
(mag) Time Altitude Azimuth Time Altitude Azimuth Time Altitude Azimuth
YAOGAN 1 2.8 18:49:57 10° SSE 18:54:08 50° ENE 18:58:18 10° N
SEDSat Delta rocket 3.0 18:50:22 10° SW 18:54:38 72° SSE 18:59:26 10° ENE
Cosmos 1400 Rocket 3.6 18:57:31 10° NNW 19:01:18 55° W 19:05:04 10° S
GPS 2-12 Rocket1 3.2 18:57:55 10° WSW 19:02:44 90° S 19:07:34 10° ENE
Yuri Rocket 3.3 19:01:53 10° WNW 19:07:05 74° SSW 19:11:15 11° ESE
Cosmos 1869 Rocket 3.6 19:05:37 10° S 19:09:56 85° W 19:14:15 10° N
Cosmos 1733 Rocket 4.3 19:08:01 10° SE 19:11:10 20° E 19:14:18 10° NE
Cosmos 1833 Rocket 3.6 19:10:46 10° SSE 19:15:12 24° ESE 19:19:38 10° NE
Sakura Rocket 3.2 19:10:56 10° WNW 19:16:04 69° SSW 19:19:27 14° SE
Cosmos 2266 Rocket 3.9 19:10:07 10° N 19:16:05 66° E 19:22:04 10° SSE
Cosmos 1939 Rocket 3.6 19:12:31 10° SE 19:16:12 33° ENE 19:19:51 10° NNE
Hubble Space Telescope 1.9 19:14:48 10° NW 19:18:30 31° NNE 19:21:21 15° E
CSL-04 Debris 4.4 19:13:53 10° S 19:19:18 76° WSW 19:24:42 10° NNW
ARIANE 5 R/B 3.5 19:17:12 10° SW 19:19:27 27° SSE 19:23:02 15° ESE
Unknown 3.0 19:16:08 10° NW 19:19:32 85° ENE 19:22:28 13° SE
Cosmos 2082 Rocket 3.4 19:20:18 10° SE 19:24:05 19° ESE 19:27:52 10° ENE
Cosmos 1898 Rocket 3.8 19:19:53 10° S 19:24:53 44° E 19:29:52 10° NNE
NOAA 11 4.4 19:22:55 10° SSE 19:28:11 50° ENE 19:33:28 10° N
Ariane Rocket 3.0 19:23:25 10° SSE 19:28:22 59° ENE 19:33:19 10° N
CENTAUR R/B 3.7 19:19:55 10° NNW 19:28:27 65° WSW 19:36:51 10° SSE
Cosmos 2369 Rocket 3.8 19:24:41 10° NW 19:29:43 35° WSW 19:34:44 10° SSW
CZ-4 R/B 3.4 19:26:30 10° SSW 19:29:58 29° W 19:33:24 10° NW
Okean 1-7 2.9 19:34:48 10° N 19:39:11 82° E 19:43:31 10° S
Unknown 3.8 19:35:53 10° NNW 19:39:27 43° NE 19:40:25 35° E
Falcon 9 debris 4.1 19:36:35 10° NW 19:39:52 45° SW 19:42:07 18° S
CZ-2D R/B 3.5 19:40:19 10° S 19:44:09 67° W 19:47:58 10° NNW
H-2A R/B 3.9 19:47:34 13° NE 19:47:34 13° NE 19:48:35 10° NE
Unknown 4.0 19:44:00 10° NW 19:47:23 48° SW 19:49:04 25° S
Cosmos 1315 Rocket 4.4 19:43:54 10° NNW 19:47:43 38° W 19:51:31 10° SSW
Cosmos 1553 Rocket 3.9 19:41:37 10° S 19:47:44 68° E 19:53:57 10° N
Cosmos 1538 Rocket 4.0 19:45:53 10° N 19:50:56 55° ENE 19:53:13 31° SE
Meteor 1-11 Rocket 4.1 19:45:59 10° SSE 19:51:26 42° E 19:56:58 10° NNE
H-2A ROCKET BODY 4.5 18:50:10 10° WNW 19:51:29 62° SW 19:58:25 20° SE
Palapa B4 Rocket 4.1 19:47:10 10° WNW 19:51:33 47° N 19:54:39 26° ENE
Cosmos 1417 Rocket 4.4 19:53:57 10° S 20:00:08 88° E 20:06:15 10° N
Cosmos 990 Rocket 4.1 19:55:41 10° SSW 20:00:54 78° WNW 20:06:07 10° N
Meteor 1-18 Rocket 4.1 19:58:19 10° N 20:04:02 77° E 20:07:51 23° SSE
Cosmos 1244 Rocket 4.3 19:59:05 10° N 20:05:10 65° E 20:08:21 29° SSE
Cosmos 1937 Rocket 3.4 20:00:26 10° SSW 20:05:41 87° ESE 20:11:00 10° NNE
Cosmos 44 2.9 20:01:49 10° NNW 20:05:54 62° NE 20:05:54 62° NE
SJ 16-02 1.4 20:08:18 10° SSW 20:12:40 77° W 20:17:04 10° N
Meteor 2-19 Rocket 4.3 20:08:37 10° N 20:14:42 74° E 20:16:54 41° SSE
S3M 3.9 20:08:40 10° S 20:15:01 89° W 20:21:18 10° N
Sylda 5 3.6 20:18:16 10° WSW 20:20:46 24° SSW 20:20:46 24° SSW
Cosmos 2221 Rocket 4.0 20:20:48 10° NNW 20:25:09 59° W 20:25:32 56° WSW
BREEZE-M DEB (TANK) 3.7 20:07:36 10° NW 20:27:04 83° NE 20:28:36 58° SE
Meteor 1-19 Rocket 4.2 20:23:47 10° N 20:29:40 89° ENE 20:30:24 70° S
SPOT 3 Rocket 4.0 20:43:15 59° WNW 20:43:15 59° WNW 20:47:47 10° NNW
ADEOS Rocket 3.9 20:42:02 10° N 20:48:33 55° WNW 20:55:45 10° SSW
Hubble Space Telescope 3.6 20:55:44 10° WNW 20:56:41 16° W 20:56:41 16° W
Cosmos 2082 Rocket 3.8 21:02:55 10° SW 21:07:49 31° WNW 21:12:46 10° N
